Regional Weather Roundup
Issued by NWS

Home | Current Version | Previous Version | Graphics & Text | Print | Product List | Glossary On
Versions: 1 2 3 4 5 6 7 8 9 10 11 12 13 14 15 16 17 18 19 20 21 22 23 24 25 26 27 28 29 30 31 32 33 34 35 36 37 38 39 40 41 42 43 44 45 46 47 48 49 50
000
ASUS43 KLOT 180700
RWRIL

ILLINOIS REGIONAL WEATHER ROUNDUP
NATIONAL WEATHER SERVICE CHICAGO/ROMEOVILLE IL
200 AM CDT THU SEP 18 2014

NOTE: "FAIR" INDICATES FEW OR NO CLOUDS BELOW 12,000 FEET WITH NO
SIGNIFICANT WEATHER AND/OR OBSTRUCTIONS TO VISIBILITY.

* THESE STATIONS ARE NOT UNDER NWS QUALITY CONTROL. THEY ALSO MAY NOT
  REPORT WEATHER SUCH AS PRECIPITATION OR FOG.

ILZ001-002-007-009-015-016-024-180800-
NORTHWEST ILLINOIS

CITY           SKY/WX    TMP DP  RH WIND       PRES   REMARKS
MOLINE         CLEAR     48  46  93 CALM      30.04S FOG
STERLING*      MOCLDY    48  45  87 CALM      30.05R
$$

ILZ003-004-008-010-011-017-018-180800-
NORTH CENTRAL ILLINOIS

CITY           SKY/WX    TMP DP  RH WIND       PRES   REMARKS
ROCKFORD       CLEAR     50  47  89 CALM      30.08R
$$

ILZ005-006-012>014-019>023-180800-
NORTHEAST ILLINOIS

CITY           SKY/WX    TMP DP  RH WIND       PRES   REMARKS
CHICAGO-OHARE  CLEAR     56  48  74 CALM      30.05R
CHICAGO-MIDWAY CLEAR     57  50  77 SW3       30.04S
AURORA         CLEAR     47  44  90 CALM      30.05S
WAUKEGAN       CLEAR     46  45  96 CALM      30.04S FOG
DUPAGE AIRPORT CLEAR     49  46  90 CALM      30.05R
WHEELING       CLEAR     51  47  86 CALM      30.07R
NORTHERLY ISL    N/A     58  52  80 W3          N/A
$$

LMZ740>746-180800-
SOUTHERN LAKE MICHIGAN

STATION/POSITION SKY/WX   TEMP    WIND        PRES    VSBY  WAVE
                          AIR SEA DIR/SP/G                  HT/PER
                          (F)     (DEG/KT/KT) (MB)    (MI)  (FT/S)
SOUTHERN BUOY              63 65  220/  6/  8 1017.3R         0
WAUKEGAN HARBOR            56     250/  3/  4   N/A
HARRISON CRIB              60     190/  7/  7   N/A
BURNHAM HARBOR             59      CALM  /  3   N/A
CALUMET HARBOR             57     200/  2/  3 1016.2R
MICHIGAN CITY              54     110/  7/  8   N/A
MICHIGAN CITY 6N           59 64  140/  6/  6   N/A           0
ST. JOSEPH                 62 67   90/  2/  4   N/A           0
$$

ILZ025>027-034>036-040-047-049-050-058-095>099-180800-
WEST-CENTRAL ILLINOIS

CITY           SKY/WX    TMP DP  RH WIND       PRES   REMARKS
QUINCY         CLEAR     53  52  96 CALM      30.02R FOG
$$

ILZ028>032-037-038-041>044-048-051>054-059>061-180800-
CENTRAL ILLINOIS

CITY           SKY/WX    TMP DP  RH WIND       PRES   REMARKS
DECATUR        CLEAR     52  51  97 CALM      30.04S FOG
PEORIA         CLEAR     53  49  86 CALM      30.04R FOG
SPRINGFIELD    CLEAR     50  48  93 CALM      30.03S
TAYLORVILLE    NOT AVBL
$$

ILZ033-039-045-046-055>057-062-063-180800-
EAST-CENTRAL ILLINOIS

CITY           SKY/WX    TMP DP  RH WIND       PRES   REMARKS
CHAMPAIGN      PTCLDY    53  51  93 N5        30.04S
MATTOON        CLEAR     52  50  93 CALM      30.02F
$$

ILZ079-100>102-180800-
SOUTHWEST ILLINOIS

CITY           SKY/WX    TMP DP  RH WIND       PRES   REMARKS
BELLEVILLE     CLOUDY    61  60  96 N2        30.00S
CAHOKIA*       CLOUDY    62  58  86 CALM      30.00S
$$

ILZ064>066-069>071-074>076-080>082-084>086-088>090-092>094-180800-
SOUTH-CENTRAL ILLINOIS

CITY           SKY/WX    TMP DP  RH WIND       PRES   REMARKS
CARBONDALE     CLOUDY    61  59  93 CALM      29.98F
MT. VERNON     CLOUDY    61  54  77 NE3       30.01S
$$

ILZ067-068-072-073-078-083-087-091-180800-
SOUTHEAST ILLINOIS

CITY           SKY/WX    TMP DP  RH WIND       PRES   REMARKS
LAWRENCEVILLE  CLOUDY    56  54  93 E5        30.02S FOG
$$

ABBREVIATIONS USED IN REMARKS
   TC - TEMPERATURE IN CELSIUS
  WCI - WIND CHILL INDEX
   HX - HEAT INDEX
  VSB - VISIBILITY
$$



USA.gov is the U.S. government's official web portal to all federal, state and local government web resources and services.